Overview Statistics Trail Chart Weather Telemetry Raw packets
 

This is the latest recevied weather packets stored in our database for station/object IZ5MMH-1. If no packets are shown the sender has not sent any weather packets the latest 10 day(s).

<< 1 2 3 4 >>
Time Temp. Humidity Pressure Rain* Wind** Luminosity Snow
1788568529 18.33° C 64% 1019 hPa - - - -
1788567928 18.33° C 61% 1019.1 hPa - - - -
1788567327 18.33° C 61% 1019.2 hPa - - - -
1788566727 18.33° C 61% 1019.2 hPa - - - -
1788566127 18.89° C 60% 1019.3 hPa - - - -
1788565527 18.89° C 62% 1019.4 hPa - - - -
1788564927 18.89° C 60% 1019.5 hPa - - - -
1788564327 18.89° C 62% 1019.4 hPa - - - -
1788563727 19.44° C 63% 1019.5 hPa - - - -
1788563127 19.44° C 63% 1019.7 hPa - - - -
1788562527 19.44° C 63% 1019.6 hPa - - - -
1788561927 19.44° C 63% 1019.6 hPa - - - -
1788561326 19.44° C 66% 1019.6 hPa - - - -
1788560727 20° C 59% 1019.6 hPa - - - -
1788560127 20° C 63% 1019.5 hPa - - - -
1788559527 20° C 60% 1019.4 hPa - - - -
1788558927 20.56° C 57% 1019.5 hPa - - - -
1788558327 20.56° C 58% 1019.5 hPa - - - -
1788557727 20.56° C 60% 1019.6 hPa - - - -
1788557126 21.11° C 60% 1019.6 hPa - - - -
1788556526 21.11° C 59% 1019.7 hPa - - - -
1788555926 21.67° C 57% 1019.7 hPa - - - -
1788555326 21.67° C 57% 1019.7 hPa - - - -
1788554727 22.22° C 55% 1019.7 hPa - - - -
1788554126 22.22° C 57% 1019.9 hPa - - - -

* Rain since midnight (hover to see other rain measurements)
** Current wind speed in m/s (hover to see current wind gust speed)